Regional Weather Roundup
Issued by NWS

Home | Current Version | Previous Version | Text Only | Print | Product List | Glossary On
Versions: 1 2 3 4 5 6 7 8 9 10 11 12 13 14 15 16 17 18 19 20 21 22 23 24 25 26 27 28 29 30 31 32 33 34 35 36 37 38 39 40 41 42 43 44 45 46 47 48 49 50
000
ASUS44 KJAN 070410
RWRMS

MISSISSIPPI HOURLY WEATHER ROUNDUP
NATIONAL WEATHER SERVICE JACKSON MS
1000 PM CST FRI MAR 06 2015

NOTE: "FAIR: INDICATES FEW OR NO CLOUDS BELOW 12,000 FEET WITH NO
SIGNIFICANT WEATHER AND/OR OBSTRUCTIONS TO VISIBILITY.

MSZ001>002-007>008-010>013-018>021-025>028-034>036-070500-
NORTHWEST MISSISSIPPI

CITY           SKY/WX    TMP DP  RH WIND       PRES   REMARKS
CLARKSDALE     FAIR      32  27  80 CALM      30.52F
CLEVELAND      FAIR      32  28  86 CALM      30.52S
GREENWOOD      CLEAR     28  25  88 CALM      30.52S
GREENVILLE     CLEAR     31  27  85 CALM      30.52R
OLIVE BRANCH   CLEAR     28  27  93 CALM      30.49F
OXFORD         FAIR      25  23  93 CALM      30.51S
TUNICA         CLEAR     32  28  86 S5        30.52S WCI  27
$$

MSZ003>006-009-014>017-022>024-029>033-037>039-070500-
NORTHEAST MISSISSIPPI

CITY           SKY/WX    TMP DP  RH WIND       PRES   REMARKS
COLUMBUS AFB   CLEAR     28  25  86 CALM      30.49F
CORINTH        FAIR      28  21  74 CALM      30.48F
GOLDN TRIANGLE CLEAR     30  25  80 NW3       30.48F
STARKVILLE     FAIR      28  25  86 CALM      30.50S
TUPELO         CLEAR     29  23  78 CALM      30.50S
$$

MSZ040-058-070500-
CENTRAL MISSISSIPPI

CITY           SKY/WX    TMP DP  RH WIND       PRES   REMARKS
JACKSON INTL   CLEAR     31  25  78 CALM      30.51R
JACKSON HAWKNS CLEAR     33  23  66 NW3       30.51R
MERIDIAN KEY   CLEAR     29  24  82 CALM      30.50R
MERIDIAN NAS   NOT AVBL
VICKSBURG      CLEAR     29  25  85 CALM      30.53S
$$

MSZ059>079-070500-
SOUTH MISSISSIPPI

CITY           SKY/WX    TMP DP  RH WIND       PRES   REMARKS
BROOKHAVEN       N/A     32  28  86 CALM      30.50S
HATTIESBURG    CLEAR     35  27  72 CALM      30.49S
MCCOMB         CLEAR     35  23  61 N6        30.48S WCI  30
NATCHEZ        CLEAR     28  21  74 N5        30.51S WCI  23
PINE BELT      CLEAR     36  19  51 N8        30.49S WCI  29
$$

MSZ080>082-070500-
COASTAL MISSISSIPPI

CITY           SKY/WX    TMP DP  RH WIND       PRES   REMARKS
BILOXI         CLOUDY    44  23  43 N6        30.46R
PASCAGOULA     MOCLDY    40  26  57 N5        30.47R
GULFPORT       MOCLDY    44  20  38 N5        30.47R
$$


USA.gov is the U.S. government's official web portal to all federal, state and local government web resources and services.